User: anonymous   Login
Location: Oshawa
(43.9000°N, 78.8670°W)
Time: 10:54:13
(UTC-05:00)
Language:

Explorer 7 - Orbit

View from above orbital plane
View from above orbital plane
View from above satellite
View from above satellite

Ground track
Ground track

The orbit data is extracted from the following two-line orbital elements,

1 00022U 59009A   18051.23415146  .00000332  00000-0  48113-4 0  9997
2 00022  50.2851 119.9235 0141361 259.5562  98.9428 14.94451424 98440
Epoch (UTC): 20 February 2018 05:37:10
Eccentricity: 0.0141361
inclination: 50.2851°
perigee height: 485 km
apogee height: 682 km
right ascension of ascending node: 119.9235°
argument of perigee: 259.5562°
revolutions per day: 14.94451424
mean anomaly at epoch: 98.9428°
orbit number at epoch: 9844

The dashed part of the orbit path shows where the satellite is in the earth's shadow,  

DLR